TimeEDT,TemperatureF,Dew PointF,Humidity,Sea Level PressureIn,VisibilityMPH,Wind Direction,Wind SpeedMPH,Gust SpeedMPH,PrecipitationIn,Events,Conditions,WindDirDegrees,DateUTC
12:54 AM,57.0,51.1,81,30.33,10.0,NE,6.9,-,N/A,,Overcast,40,2013-10-13 04:54:00
1:54 AM,54.0,50.0,86,30.33,10.0,Calm,Calm,-,N/A,,Overcast,0,2013-10-13 05:54:00
2:23 AM,51.8,48.2,88,30.32,10.0,NE,4.6,-,N/A,,Scattered Clouds,40,2013-10-13 06:23:00
2:54 AM,52.0,48.0,86,30.32,10.0,NE,4.6,-,N/A,,Clear,40,2013-10-13 06:54:00
3:54 AM,51.1,48.0,89,30.32,10.0,NE,3.5,-,N/A,,Clear,40,2013-10-13 07:54:00
4:54 AM,48.0,46.0,93,30.33,10.0,NNE,3.5,-,N/A,,Clear,30,2013-10-13 08:54:00
5:54 AM,48.0,46.9,96,30.35,9.0,Calm,Calm,-,0.00,,Clear,0,2013-10-13 09:54:00
6:54 AM,46.9,46.0,97,30.37,5.0,Calm,Calm,-,N/A,,Clear,0,2013-10-13 10:54:00
7:04 AM,44.6,44.6,100,30.37,1.5,East,3.5,-,N/A,,Clear,80,2013-10-13 11:04:00
7:08 AM,44.6,44.6,100,30.37,4.0,ENE,3.5,-,N/A,,Clear,70,2013-10-13 11:08:00
7:54 AM,48.0,46.0,93,30.39,7.0,North,3.5,-,N/A,,Clear,360,2013-10-13 11:54:00
8:54 AM,55.0,50.0,83,30.40,10.0,ENE,4.6,-,N/A,,Clear,60,2013-10-13 12:54:00
9:40 AM,57.2,48.2,72,30.40,10.0,Variable,6.9,-,N/A,,Mostly Cloudy,0,2013-10-13 13:40:00
9:54 AM,57.0,48.0,72,30.41,10.0,ENE,9.2,-,N/A,,Mostly Cloudy,60,2013-10-13 13:54:00
10:29 AM,57.2,46.4,67,30.41,10.0,East,9.2,-,N/A,,Scattered Clouds,90,2013-10-13 14:29:00
10:44 AM,60.8,48.2,63,30.41,10.0,NE,11.5,17.3,N/A,,Mostly Cloudy,50,2013-10-13 14:44:00
10:54 AM,57.9,46.9,67,30.42,10.0,ENE,6.9,-,N/A,,Mostly Cloudy,60,2013-10-13 14:54:00
11:28 AM,59.0,48.2,67,30.41,10.0,NE,6.9,-,N/A,,Scattered Clouds,40,2013-10-13 15:28:00
11:54 AM,61.0,48.0,62,30.40,10.0,NNE,8.1,-,N/A,,Scattered Clouds,30,2013-10-13 15:54:00
12:54 PM,64.0,48.9,58,30.38,10.0,East,5.8,-,N/A,,Clear,80,2013-10-13 16:54:00
1:54 PM,64.0,48.0,56,30.37,10.0,East,3.5,-,N/A,,Clear,100,2013-10-13 17:54:00
2:54 PM,66.0,48.9,54,30.35,10.0,ESE,4.6,-,N/A,,Clear,110,2013-10-13 18:54:00
3:54 PM,66.0,48.0,52,30.32,10.0,ESE,5.8,-,N/A,,Clear,120,2013-10-13 19:54:00
4:54 PM,66.0,48.9,54,30.32,10.0,ESE,5.8,-,N/A,,Clear,120,2013-10-13 20:54:00
5:54 PM,62.1,50.0,65,30.33,10.0,South,3.5,-,N/A,,Unknown,180,2013-10-13 21:54:00
6:54 PM,55.0,48.9,80,30.35,10.0,Calm,Calm,-,N/A,,Clear,0,2013-10-13 22:54:00
7:54 PM,51.1,48.0,89,30.36,10.0,Calm,Calm,-,N/A,,Clear,0,2013-10-13 23:54:00
8:54 PM,50.0,48.0,93,30.38,10.0,Calm,Calm,-,N/A,,Clear,0,2013-10-14 00:54:00
9:54 PM,48.9,46.9,93,30.38,10.0,Calm,Calm,-,N/A,,Clear,0,2013-10-14 01:54:00
10:46 PM,46.4,46.4,100,30.38,1.2,Calm,Calm,-,N/A,,Partly Cloudy,0,2013-10-14 02:46:00
10:54 PM,46.9,45.0,93,30.39,9.0,Calm,Calm,-,N/A,,Partly Cloudy,0,2013-10-14 02:54:00
11:14 PM,46.4,44.6,93,30.38,1.8,Calm,Calm,-,N/A,,Partly Cloudy,0,2013-10-14 03:14:00
11:22 PM,46.4,46.4,100,30.38,0.8,Calm,Calm,-,N/A,,Mist,0,2013-10-14 03:22:00
11:29 PM,46.4,44.6,93,30.38,0.8,Calm,Calm,-,N/A,,Mist,0,2013-10-14 03:29:00
11:32 PM,46.4,44.6,93,30.38,1.5,Calm,Calm,-,N/A,,Partly Cloudy,0,2013-10-14 03:32:00
11:34 PM,46.4,44.6,93,30.38,4.0,Calm,Calm,-,N/A,,Partly Cloudy,0,2013-10-14 03:34:00
11:54 PM,46.0,44.1,93,30.38,10.0,Calm,Calm,-,N/A,,Partly Cloudy,0,2013-10-14 03:54:00